Location: Austin
(30.3000°N, 97.7500°W)
Time: 00:24:59
(UTC-05:00)

Ariane Rocket - Pass Details

Date: 15 May 2024
Orbit: 758 x 766 km, 98.5° (Epoch: 19 May)

Event Time Altitude Azimuth Distance (km) Brightness Sun altitude
Exits shadow 22:09:34 21° 67° (ENE) 1,654 4.5 -21.4°
Drops below altitude 10° 22:13:10 10° 21° (NNE) 2,296 5.7 -21.9°
Sets 22:15:57 0° 6° (N) 3,227 6.7 -22.4°
